Weather History for KAXA - May, 2014

Change the Weather History Date:

Tuesday, May 6, 2014

  Actual Average (KEST) Record (KEST)
Temperature  
Mean Temperature 56 °F 55 °F  
Max Temperature 71 °F 67 °F - ()
Min Temperature 42 °F 43 °F - ()
Degree Days  
Heating Degree Days 8 10  
Month to date heating degree days 67  
Since 1 July heating degree days 7528  
Cooling Degree Days 0 0  
Month to date cooling degree days 0  
Year to date cooling degree days 2  
Growing Degree Days 6 (Base 50)    
Moisture  
Dew Point 39 °F    
Average Humidity 45    
Maximum Humidity 70    
Minimum Humidity 33    
Precipitation  
Precipitation 0.00 in 0.12 in - ()
Month to date precipitation 0.68  
Sea Level Pressure  
Sea Level Pressure 29.77 in    
Wind  
Wind Speed 18 mph (ESE)    
Max Wind Speed 26 mph    
Max Gust Speed 38 mph    
Visibility 10 miles    
Events      
T = Trace of Precipitation, MM = Missing Value Source: NWS Daily Summary

Daily Weather History Graph

Daily Weather History Graph

Search for Another Location

Airport or City:

Trip Planner

Search our weather history database for the weather conditions in past years. The results will help you decide how hot, cold, wet, or windy it might be!

Date:

Astronomy

May. 06, 2014 Rise Set
Actual Time 6:04 AM CDT 8:24 PM CDT
Civil Twilight 5:32 AM CDT 8:55 PM CDT
Nautical Twilight 4:53 AM CDT 9:35 PM CDT
Astronomical Twilight 4:09 AM CDT 10:19 PM CDT
Moon 12:22 PM CDT (5/6) 1:42 AM CDT (5/6)
Length of Visible Light 15h 23m
Length of Day
14h 19m
Waxing Crescent, 46% of the Moon is Illuminated
May 6
Waxing Crescent
May 6
First Quarter
May 14
Full
May 21
Last Quarter
May 28
New

Hourly Weather History & Observations

Time (CDT) Temp. Windchill Dew Point Humidity Pressure Visibility Wind Dir Wind Speed Gust Speed Precip Events Conditions
12:15 AM 53.6 °F - 37.4 °F 54% 29.91 in 10.0 mi ESE 13.8 mph 19.6 mph N/A   Clear
12:35 AM 51.8 °F - 37.4 °F 58% 29.90 in 10.0 mi ESE 15.0 mph - N/A   Clear
12:55 AM 51.8 °F - 37.4 °F 58% 29.89 in 10.0 mi ESE 13.8 mph 19.6 mph N/A   Clear
1:15 AM 51.8 °F - 37.4 °F 58% 29.89 in 10.0 mi ESE 15.0 mph - N/A   Clear
1:35 AM 50.0 °F - 37.4 °F 62% 29.89 in 10.0 mi ESE 12.7 mph 18.4 mph N/A   Clear
1:55 AM 50.0 °F - 37.4 °F 62% 29.89 in 10.0 mi ESE 12.7 mph 20.7 mph N/A   Clear
2:15 AM 50.0 °F - 37.4 °F 62% 29.88 in 10.0 mi ESE 15.0 mph - N/A   Clear
6:55 AM 42.8 °F 35.8 °F 33.8 °F 70% 29.87 in 10.0 mi ESE 13.8 mph 19.6 mph N/A   Clear
7:15 AM 44.6 °F 38.1 °F 33.8 °F 66% 29.88 in 10.0 mi ESE 13.8 mph - N/A   Clear
7:35 AM 46.4 °F 40.1 °F 33.8 °F 62% 29.88 in 10.0 mi ESE 15.0 mph 21.9 mph N/A   Clear
7:55 AM 46.4 °F 39.5 °F 33.8 °F 62% 29.88 in 10.0 mi ESE 17.3 mph 24.2 mph N/A   Clear
8:15 AM 48.2 °F - 33.8 °F 58% 29.86 in 10.0 mi ESE 20.7 mph 28.8 mph N/A   Clear
8:55 AM 50.0 °F - 35.6 °F 58% 29.87 in 10.0 mi ESE 17.3 mph 32.2 mph N/A   Clear
9:15 AM 51.8 °F - 35.6 °F 54% 29.87 in 10.0 mi ESE 17.3 mph 32.2 mph N/A   Clear
9:35 AM 51.8 °F - 35.6 °F 54% 29.86 in 10.0 mi ESE 20.7 mph 32.2 mph N/A   Clear
9:55 AM 53.6 °F - 35.6 °F 51% 29.86 in 10.0 mi ESE 23.0 mph 31.1 mph N/A   Clear
10:15 AM 55.4 °F - 35.6 °F 47% 29.86 in 10.0 mi ESE 19.6 mph 33.4 mph N/A   Clear
10:35 AM 57.2 °F - 37.4 °F 48% 29.86 in 10.0 mi ESE 18.4 mph 32.2 mph N/A   Clear
10:55 AM 59.0 °F - 37.4 °F 45% 29.86 in - ESE 18.4 mph 27.6 mph N/A   Clear
11:15 AM 59.0 °F - 37.4 °F 45% 29.85 in 10.0 mi ESE 18.4 mph 31.1 mph N/A   Clear
11:35 AM 60.8 °F - 37.4 °F 42% 29.84 in 10.0 mi ESE 20.7 mph 29.9 mph N/A   Clear
11:55 AM 62.6 °F - 37.4 °F 39% 29.83 in 10.0 mi East 26.5 mph 34.5 mph N/A   Clear
12:15 PM 64.4 °F - 39.2 °F 40% 29.81 in 10.0 mi ESE 18.4 mph 28.8 mph N/A   Clear
12:35 PM 64.4 °F - 39.2 °F 40% 29.80 in 10.0 mi ESE 24.2 mph - N/A   Clear
12:55 PM 64.4 °F - 37.4 °F 37% 29.79 in 10.0 mi ESE 23.0 mph 32.2 mph N/A   Clear
1:15 PM 66.2 °F - 39.2 °F 37% 29.76 in 10.0 mi ESE 21.9 mph 35.7 mph N/A   Clear
1:35 PM 66.2 °F - 39.2 °F 37% 29.75 in 10.0 mi ESE 24.2 mph 34.5 mph N/A   Clear
1:55 PM 68.0 °F - 39.2 °F 35% 29.73 in 10.0 mi ESE 21.9 mph 32.2 mph N/A   Clear
2:15 PM 68.0 °F - 41.0 °F 37% 29.73 in 10.0 mi ESE 21.9 mph 34.5 mph N/A   Clear
2:35 PM 68.0 °F - 41.0 °F 37% 29.72 in 10.0 mi ESE 25.3 mph 35.7 mph N/A   Clear
3:15 PM 69.8 °F - 41.0 °F 35% 29.70 in 10.0 mi SE 24.2 mph 36.8 mph N/A   Clear
3:35 PM 69.8 °F - 41.0 °F 35% 29.68 in 10.0 mi ESE 25.3 mph 38.0 mph N/A   Clear
3:55 PM 69.8 °F - 41.0 °F 35% 29.68 in 10.0 mi ESE 23.0 mph 32.2 mph N/A   Clear
4:15 PM 71.6 °F - 41.0 °F 33% 29.68 in 10.0 mi ESE 25.3 mph 31.1 mph N/A   Clear
4:35 PM 71.6 °F - 42.8 °F 35% 29.68 in 10.0 mi SE 24.2 mph 34.5 mph N/A   Clear
4:55 PM 69.8 °F - 42.8 °F 38% 29.69 in 10.0 mi ESE 21.9 mph 34.5 mph N/A   Clear
5:15 PM 69.8 °F - 41.0 °F 35% 29.68 in 10.0 mi ESE 26.5 mph 32.2 mph N/A   Clear
5:35 PM 69.8 °F - 41.0 °F 35% 29.69 in 10.0 mi ESE 21.9 mph 32.2 mph N/A   Clear
5:55 PM 69.8 °F - 41.0 °F 35% 29.69 in 10.0 mi ESE 18.4 mph 28.8 mph N/A   Partly Cloudy
6:15 PM 69.8 °F - 39.2 °F 33% 29.69 in 10.0 mi ESE 19.6 mph 27.6 mph N/A   Mostly Cloudy
6:35 PM 68.0 °F - 39.2 °F 35% 29.70 in 10.0 mi ESE 15.0 mph 28.8 mph N/A   Overcast
6:55 PM 68.0 °F - 39.2 °F 35% 29.70 in 10.0 mi ESE 23.0 mph 29.9 mph N/A   Overcast
7:15 PM 68.0 °F - 39.2 °F 35% 29.70 in 10.0 mi ESE 16.1 mph 25.3 mph N/A   Overcast
7:35 PM 68.0 °F - 39.2 °F 35% 29.70 in 10.0 mi ESE 18.4 mph 24.2 mph N/A   Overcast
7:55 PM 66.2 °F - 41.0 °F 40% 29.71 in 10.0 mi East 13.8 mph 21.9 mph N/A   Overcast
8:15 PM 66.2 °F - 41.0 °F 40% 29.71 in 10.0 mi East 15.0 mph 21.9 mph N/A   Overcast
8:35 PM 66.2 °F - 41.0 °F 40% 29.71 in 10.0 mi East 18.4 mph - N/A   Overcast
8:55 PM 64.4 °F - 41.0 °F 42% 29.71 in 10.0 mi East 16.1 mph 23.0 mph N/A   Overcast
9:15 PM 64.4 °F - 41.0 °F 42% 29.72 in 10.0 mi East 16.1 mph 24.2 mph N/A   Overcast
9:35 PM 64.4 °F - 41.0 °F 42% 29.71 in 10.0 mi East 16.1 mph 24.2 mph N/A   Overcast
10:15 PM 62.6 °F - 41.0 °F 45% 29.71 in 10.0 mi East 17.3 mph 24.2 mph N/A   Overcast
10:35 PM 60.8 °F - 39.2 °F 45% 29.71 in 10.0 mi East 16.1 mph 26.5 mph N/A   Overcast
10:55 PM 60.8 °F - 39.2 °F 45% 29.71 in 10.0 mi East 19.6 mph 26.5 mph N/A   Overcast
11:15 PM 60.8 °F - 39.2 °F 45% 29.70 in 10.0 mi ESE 19.6 mph 32.2 mph N/A   Mostly Cloudy
11:35 PM 59.0 °F - 39.2 °F 48% 29.69 in 10.0 mi ESE 23.0 mph 31.1 mph N/A   Partly Cloudy
11:55 PM 59.0 °F - 39.2 °F 48% 29.68 in 10.0 mi East 19.6 mph 26.5 mph N/A   Clear